{"data":{"norad_id":51463,"epoch":"2026-09-20T02:18:37.181088Z","epoch_age_seconds":83244,"freshness":"FRESH","line1":"1 51463U 22010H   26263.09626367 -.00000596  00000+0 -74556-5 0  9995","line2":"2 51463  53.1586 111.0998 0001297  77.7091 282.4056 15.31697209256078","mean_motion":15.31697209,"eccentricity":0.0001297,"inclination_deg":53.1586,"raan_deg":111.0998,"arg_perigee_deg":77.7091,"mean_anomaly_deg":282.4056,"bstar":-7.4556e-6,"rev_number":25607,"period_min":94.01335926832,"perigee_km":469.86001463869,"apogee_km":471.63661548941,"semimajor_km":6848.885315064,"source":"CELESTRAK","updated_at":"2026-09-20T09:00:39.594309Z"}}